| time (UTC) | temp F | wind direction | speed knots | gust knots | rain 1hr in | rain 24hr in | rain mn in | humidity % | barometer mb |
| 20260508041540 | 36 | 12 | 0.0 | 0.0 | 0.00 | 0.00 | 0.00 | 74 | 1008.4 |
| 20260508040041 | 36 | 12 | 0.0 | 0.0 | 0.00 | 0.00 | 0.00 | 74 | 1008.4 |
| 20260508034536 | 37 | 12 | 0.0 | 0.0 | 0.00 | 0.00 | 0.00 | 73 | 1008.4 |
| 20260508033034 | 37 | 12 | 0.0 | 0.0 | 0.00 | 0.00 | 0.00 | 70 | 1008.5 |
| 20260508031533 | 38 | 13 | 0.0 | 0.0 | 0.00 | 0.00 | 0.00 | 70 | 1008.3 |
| 20260508030031 | 38 | 12 | 0.0 | 0.0 | 0.00 | 0.00 | 0.00 | 67 | 1008.4 |
| 20260508024541 | 40 | 12 | 0.0 | 0.0 | 0.00 | 0.00 | 0.00 | 67 | 1008.4 |
| 20260508023030 | 41 | 12 | 0.0 | 0.0 | 0.00 | 0.00 | 0.00 | 64 | 1008.3 |
| 20260508021528 | 41 | 12 | 0.0 | 0.0 | 0.00 | 0.00 | 0.00 | 62 | 1008.2 |
| 20260508020027 | 42 | 12 | 0.0 | 0.0 | 0.00 | 0.00 | 0.00 | 60 | 1008.2 |
| 20260508014543 | 43 | 17 | 0.0 | 5.2 | 0.00 | 0.01 | 0.00 | 57 | 1008.0 |
| 20260508013028 | 43 | 5 | 0.0 | 7.0 | 0.00 | 0.01 | 0.00 | 56 | 1007.7 |
| 20260508011528 | 44 | 343 | 0.0 | 4.3 | 0.00 | 0.01 | 0.00 | 55 | 1007.6 |
| 20260508010030 | 44 | 313 | 3.5 | 7.0 | 0.00 | 0.01 | 0.00 | 53 | 1007.5 |
| 20260508004528 | 45 | 333 | 0.0 | 6.1 | 0.00 | 0.02 | 0.00 | 54 | 1007.3 |
| 20260508003049 | 46 | 350 | 4.3 | 7.8 | 0.00 | 0.02 | 0.00 | 52 | 1007.1 |
| 20260508001523 | 46 | 313 | 0.0 | 3.5 | 0.00 | 0.02 | 0.00 | 50 | 1006.9 |
| 20260508000024 | 47 | 298 | 0.0 | 5.2 | 0.00 | 0.02 | 0.00 | 50 | 1006.7 |
| 20260507234523 | 48 | 263 | 0.0 | 7.8 | 0.00 | 0.02 | 0.00 | 48 | 1006.7 |
| 20260507233031 | 48 | 243 | 4.3 | 11.3 | 0.00 | 0.02 | 0.00 | 46 | 1006.5 |
| 20260507231522 | 49 | 281 | 4.3 | 11.3 | 0.00 | 0.02 | 0.00 | 46 | 1006.4 |
| 20260507230021 | 50 | 292 | 2.6 | 9.6 | 0.00 | 0.02 | 0.00 | 46 | 1006.4 |
| 20260507224522 | 50 | 285 | 7.0 | 13.0 | 0.00 | 0.02 | 0.00 | 46 | 1006.5 |
| 20260507223021 | 50 | 242 | 5.2 | 12.2 | 0.00 | 0.02 | 0.00 | 46 | 1006.4 |
| 20260507221520 | 51 | 279 | 4.3 | 13.0 | 0.00 | 0.02 | 0.00 | 45 | 1006.4 |
| 20260507220020 | 51 | 290 | 6.1 | 15.6 | 0.00 | 0.02 | 0.00 | 44 | 1006.3 |
| 20260507214520 | 51 | 208 | 0.9 | 11.3 | 0.00 | 0.02 | 0.00 | 48 | 1006.3 |
| 20260507213020 | 51 | 161 | 3.5 | 11.3 | 0.00 | 0.02 | 0.00 | 46 | 1006.2 |
| 20260507211519 | 50 | 319 | 6.1 | 13.9 | 0.00 | 0.02 | 0.00 | 47 | 1006.3 |
| 20260507210018 | 51 | 223 | 5.2 | 13.9 | 0.00 | 0.02 | 0.00 | 44 | 1006.2 |
| 20260507204517 | 52 | 316 | 6.1 | 18.2 | 0.00 | 0.08 | 0.00 | 45 | 1006.1 |
| 20260507203018 | 52 | 331 | 8.7 | 13.0 | 0.00 | 0.08 | 0.00 | 46 | 1006.1 |
| 20260507201519 | 50 | 180 | 3.5 | 12.2 | 0.00 | 0.08 | 0.00 | 50 | 1006.2 |
| 20260507200015 | 50 | 296 | 0.0 | 12.2 | 0.00 | 0.08 | 0.00 | 49 | 1006.2 |
| 20260507194516 | 50 | 309 | 6.1 | 17.4 | 0.00 | 0.11 | 0.00 | 48 | 1006.4 |
| 20260507193014 | 50 | 311 | 7.8 | 13.0 | 0.00 | 0.11 | 0.00 | 47 | 1006.4 |
| 20260507191514 | 50 | 283 | 2.6 | 13.9 | 0.00 | 0.11 | 0.00 | 48 | 1006.5 |
| 20260507190014 | 50 | 314 | 5.2 | 10.4 | 0.00 | 0.11 | 0.00 | 48 | 1006.7 |
| 20260507184516 | 50 | 350 | 4.3 | 11.3 | 0.00 | 0.20 | 0.00 | 50 | 1006.7 |
| 20260507183013 | 50 | 254 | 6.1 | 14.8 | 0.00 | 0.20 | 0.00 | 48 | 1006.9 |
| 20260507181512 | 50 | 279 | 2.6 | 13.9 | 0.00 | 0.20 | 0.00 | 48 | 1007.0 |
| 20260507180014 | 51 | 347 | 7.0 | 13.9 | 0.00 | 0.20 | 0.00 | 45 | 1007.0 |
| 20260507174511 | 52 | 323 | 7.8 | 17.4 | 0.00 | 0.33 | 0.00 | 44 | 1007.0 |
| 20260507173011 | 53 | 214 | 5.2 | 14.8 | 0.00 | 0.33 | 0.00 | 49 | 1007.1 |
| 20260507171507 | 52 | 307 | 5.2 | 11.3 | 0.00 | 0.33 | 0.00 | 52 | 1007.2 |
| 20260507170006 | 51 | 300 | 5.2 | 15.6 | 0.00 | 0.33 | 0.00 | 50 | 1007.3 |
| 20260507164504 | 51 | 315 | 7.8 | 13.0 | 0.00 | 0.48 | 0.00 | 55 | 1007.5 |
| 20260507163002 | 50 | 313 | 4.3 | 14.8 | 0.00 | 0.48 | 0.00 | 54 | 1007.8 |
| 20260507161603 | 50 | 321 | 7.8 | 14.8 | 0.00 | 0.48 | 0.00 | 53 | 1007.9 |
| 20260507160107 | 50 | 355 | 7.8 | 16.5 | 0.00 | 0.48 | 0.00 | 51 | 1008.0 |
| 20260507154554 | 50 | 281 | 5.2 | 15.6 | 0.00 | 0.54 | 0.00 | 56 | 1008.1 |
| 20260507153058 | 49 | 263 | 7.0 | 17.4 | 0.00 | 0.54 | 0.00 | 52 | 1008.3 |
| 20260507151546 | 48 | 273 | 6.1 | 19.1 | 0.00 | 0.54 | 0.00 | 55 | 1008.3 |
| 20260507150041 | 47 | 301 | 4.3 | 16.5 | 0.00 | 0.54 | 0.00 | 56 | 1008.2 |
| 20260507144538 | 47 | 263 | 7.8 | 15.6 | 0.00 | 0.56 | 0.00 | 53 | 1008.4 |
| 20260507143035 | 46 | 322 | 6.1 | 18.2 | 0.00 | 0.56 | 0.00 | 56 | 1008.3 |
| 20260507141531 | 46 | 242 | 7.8 | 19.1 | 0.00 | 0.56 | 0.00 | 54 | 1008.4 |
| 20260507140029 | 46 | 273 | 5.2 | 14.8 | 0.00 | 0.56 | 0.00 | 61 | 1008.1 |
| 20260507134526 | 46 | 342 | 7.0 | 12.2 | 0.00 | 0.56 | 0.00 | 65 | 1007.9 |
| 20260507133022 | 45 | 279 | 7.0 | 14.8 | 0.00 | 0.56 | 0.00 | 68 | 1007.9 |
| 20260507131515 | 45 | 317 | 6.1 | 11.3 | 0.00 | 0.56 | 0.00 | 70 | 1007.7 |
| 20260507130012 | 44 | 292 | 6.1 | 13.0 | 0.00 | 0.56 | 0.00 | 71 | 1007.7 |
| 20260507124513 | 44 | 319 | 5.2 | 13.9 | 0.00 | 0.56 | 0.00 | 75 | 1007.7 |
| 20260507123003 | 43 | 308 | 5.2 | 12.2 | 0.00 | 0.56 | 0.00 | 81 | 1007.7 |
| 20260507121559 | 41 | 281 | 4.3 | 9.6 | 0.00 | 0.56 | 0.00 | 90 | 1007.5 |
| 20260507120055 | 39 | 271 | 3.5 | 9.6 | 0.00 | 0.56 | 0.00 | 93 | 1007.4 |
| 20260507114553 | 39 | 326 | 0.0 | 0.0 | 0.00 | 0.56 | 0.00 | 94 | 1007.3 |
| 20260507113050 | 40 | 298 | 0.0 | 0.0 | 0.00 | 0.56 | 0.00 | 94 | 1007.2 |
| 20260507111549 | 40 | 5 | 0.0 | 0.0 | 0.00 | 0.56 | 0.00 | 94 | 1007.3 |
| 20260507110051 | 40 | 5 | 0.0 | 0.0 | 0.00 | 0.56 | 0.00 | 94 | 1007.2 |
| 20260507104546 | 40 | 5 | 0.0 | 0.0 | 0.00 | 0.56 | 0.00 | 94 | 1006.9 |
| 20260507103044 | 39 | 5 | 0.0 | 0.0 | 0.00 | 0.56 | 0.00 | 94 | 1007.0 |
| 20260507101559 | 39 | 220 | 0.0 | 0.0 | 0.00 | 0.56 | 0.00 | 94 | 1006.9 |
| 20260507100042 | 39 | 220 | 0.0 | 0.0 | 0.00 | 0.56 | 0.00 | 94 | 1006.8 |
| 20260507094553 | 40 | 220 | 0.0 | 0.0 | 0.00 | 0.56 | 0.00 | 94 | 1006.7 |
| 20260507093041 | 40 | 220 | 0.0 | 0.0 | 0.00 | 0.56 | 0.00 | 94 | 1007.1 |
| 20260507091554 | 40 | 220 | 0.0 | 0.0 | 0.00 | 0.56 | 0.00 | 94 | 1007.0 |
| 20260507090058 | 40 | 220 | 0.0 | 0.0 | 0.00 | 0.56 | 0.00 | 94 | 1007.1 |
| 20260507084539 | 39 | 220 | 0.0 | 0.0 | 0.00 | 0.56 | 0.00 | 93 | 1007.3 |
| 20260507083041 | 39 | 220 | 0.0 | 0.0 | 0.00 | 0.56 | 0.00 | 94 | 1007.1 |
| 20260507081550 | 40 | 220 | 0.0 | 0.0 | 0.00 | 0.56 | 0.00 | 94 | 1006.9 |
| 20260507080036 | 40 | 220 | 0.0 | 0.0 | 0.00 | 0.56 | 0.00 | 93 | 1007.0 |
| 20260507074539 | 40 | 220 | 0.0 | 0.0 | 0.00 | 0.56 | 0.00 | 93 | 1007.1 |
| 20260507073040 | 40 | 220 | 0.0 | 0.0 | 0.00 | 0.56 | 0.00 | 93 | 1007.1 |
| 20260507071532 | 40 | 220 | 0.0 | 0.0 | 0.00 | 0.56 | 0.00 | 93 | 1007.0 |
| 20260507070034 | 41 | 220 | 0.0 | 0.0 | 0.00 | 0.56 | 0.00 | 93 | 1006.7 |
| 20260507064531 | 41 | 326 | 0.0 | 0.0 | 0.00 | 0.56 | 0.00 | 93 | 1006.7 |
| 20260507063030 | 41 | 326 | 0.0 | 0.0 | 0.00 | 0.56 | 0.00 | 93 | 1006.4 |
| 20260507061533 | 41 | 315 | 0.0 | 0.0 | 0.00 | 0.56 | 0.00 | 93 | 1006.6 |
| 20260507060034 | 41 | 324 | 0.0 | 0.0 | 0.00 | 0.56 | 0.00 | 93 | 1006.7 |
| 20260507054527 | 41 | 302 | 0.0 | 0.0 | 0.00 | 0.56 | 0.00 | 93 | 1006.6 |
| 20260507053027 | 40 | 11 | 0.0 | 0.0 | 0.00 | 0.56 | 0.00 | 93 | 1007.0 |
| 20260507051525 | 41 | 360 | 0.0 | 0.0 | 0.00 | 0.56 | 0.00 | 93 | 1007.2 |
| 20260507050031 | 40 | 5 | 0.0 | 0.0 | 0.00 | 0.56 | 0.00 | 93 | 1007.0 |
| 20260507044538 | 41 | 341 | 0.0 | 0.0 | 0.00 | 0.56 | 0.00 | 93 | 1006.7 |
| 20260507043020 | 41 | 313 | 0.0 | 0.0 | 0.00 | 0.56 | 0.00 | 93 | 1006.7 |